Wind_Speed
67 64 68 59 54 50 48 47 42 34 35 40 33 34 37 41 37 36 31 33 29 26 29 24 20 18 16 16 15 15 14 14 13 13 16 15 19 19 20 21 21 21 24 26
67 69 62 56 55 52 49 46 43 41 41 40 38 32 35 38 32 31 32 31 30 30 32 28 25 20 19 20 18 17 16 15 16 17 18 19 19 18 18 19 23 25 26 27
66 66 64 59 58 56 53 48 44 45 45 41 37 35 35 28 26 29 27 26 25 28 34 34 29 24 24 21 22 22 21 20 19 21 20 19 18 20 20 23 26 28 29 30
59 68 65 62 60 59 56 48 46 48 46 47 39 39 36 32 27 26 24 23 23 24 30 38 37 33 28 25 27 24 25 25 23 24 22 22 22 21 25 26 27 29 31 32
58 66 65 64 58 61 57 46 46 46 46 46 46 47 37 37 31 27 27 24 23 17 22 27 31 31 31 30 29 29 29 29 29 28 27 27 26 27 29 30 31 34 37 37
62 69 67 64 58 58 57 49 50 49 47 51 46 47 42 41 27 32 27 25 24 17 15 21 25 25 23 24 24 27 31 33 33 30 29 29 30 31 32 33 36 38 40 41
62 66 65 66 62 63 63 58 56 51 48 50 43 47 48 41 35 34 29 26 24 23 20 18 18 19 20 18 18 19 18 19 22 21 22 25 27 27 29 33 37 41 44 45
76 76 76 74 69 62 62 61 62 58 55 54 52 52 48 36 34 35 33 30 27 28 26 23 22 20 18 15 13 12 13 16 16 18 19 20 21 24 27 30 34 37 41 46
71 72 67 70 67 65 66 65 57 56 52 52 58 53 53 44 40 36 33 33 30 29 30 26 22 21 23 20 19 20 19 19 21 20 23 24 25 27 30 33 35 38 42 45
71 67 66 65 66 68 67 64 63 62 61 60 60 58 56 41 36 36 35 34 34 32 31 29 26 25 26 26 28 28 28 27 27 28 29 31 34 35 35 36 38 40 43 45
76 67 71 76 74 72 68 67 65 59 62 60 60 58 50 45 37 37 38 35 34 34 33 33 33 33 33 31 30 31 31 32 33 34 37 37 36 36 37 37 37 40 43 44
71 65 66 71 73 71 68 68 67 67 61 59 60 63 62 51 40 30 37 39 36 34 35 36 36 36 35 36 35 36 37 38 39 41 42 41 42 43 43 43 44 45 47 51
71 73 73 73 76 74 70 65 66 63 63 62 60 57 51 45 41 34 37 39 39 39 39 40 41 40 41 41 41 41 42 43 43 45 45 45 46 47 47 49 51 51 52 54
72 73 71 66 53 61 69 59 55 64 66 60 60 59 59 57 54 51 48 44 42 42 42 43 43 44 45 46 46 47 46 48 48 48 49 51 50 50 51 52 53 53 50 48
70 67 67 63 69 66 64 67 62 66 62 67 55 60 57 55 54 52 51 48 45 44 44 46 47 48 50 50 50 51 51 51 51 51 51 51 52 54 54 54 53 53 53 53
68 59 59 61 65 63 65 62 69 63 62 61 60 59 56 55 56 58 57 55 52 48 47 49 50 52 53 53 53 52 51 51 51 50 51 53 53 53 50 50 50 52 54 54
70 67 64 64 69 70 73 67 63 58 54 51 58 49 58 59 61 61 58 54 49 50 50 53 52 48 47 46 45 46 47 48 50 51 51 50 48 47 48 51 52 53 53 53
64 63 63 66 69 76 63 68 65 64 60 56 51 52 53 54 56 57 58 59 56 52 50 47 44 42 41 42 44 45 47 49 49 49 49 50 50 52 53 53 53 53 54 54
68 62 65 64 65 69 68 65 61 63 55 58 56 53 48 46 51 58 56 53 50 48 46 44 44 44 46 46 46 48 49 49 50 50 50 49 50 51 50 49 48 47 47 48
70 65 58 56 54 54 57 59 52 54 59 51 50 49 50 51 48 44 44 45 41 38 40 44 45 45 46 48 50 50 51 51 49 48 48 48 49 47 44 43 43 45 47 48
72 73 69 68 64 60 46 48 53 59 39 38 50 47 44 46 42 38 41 41 43 45 46 47 49 47 47 47 47 49 50 48 47 48 49 47 43 41 41 42 42 42 42 44
69 67 64 62 61 55 44 49 55 45 39 41 37 39 43 41 40 39 41 42 43 45 45 44 45 46 49 51 53 54 54 53 52 48 46 44 42 41 41 41 42 37 37 37
59 55 51 55 47 43 42 41 38 40 35 39 35 36 39 40 44 43 42 39 40 42 46 49 53 52 52 54 54 55 56 55 50 47 44 45 45 43 41 40 40 38 37 34
48 48 50 48 39 39 38 32 30 35 38 41 46 45 40 36 37 38 40 45 47 48 50 52 50 49 50 51 53 55 56 54 50 49 46 46 46 43 42 40 38 38 36 39
47 45 42 41 40 38 39 38 40 32 35 35 37 43 42 45 43 43 46 48 50 51 50 46 47 47 48 49 52 54 52 51 51 50 50 48 46 44 43 41 41 40 39 39
49 55 48 44 41 36 36 36 35 42 34 35 36 40 45 45 46 48 50 50 48 46 47 49 49 48 50 51 52 52 51 51 51 51 50 49 50 49 46 43 44 45 43 42
Wind_Direction
222 224 227 230 231 231 228 232 230 228 235 234 227 228 228 232 239 235 237 237 233 234 234 225 221 222 231 229 227 223 229 235 236 231 236 238 250 255 258 260 258 258 255 256
219 224 228 229 230 230 229 229 229 230 235 236 228 223 230 232 233 231 237 239 242 235 235 230 229 225 226 231 228 232 237 239 243 243 239 248 257 266 270 269 267 263 263 264
228 230 228 227 229 230 229 228 228 230 233 235 230 223 226 230 224 227 237 238 238 240 238 231 226 227 229 225 231 229 231 236 243 250 253 257 263 267 268 266 268 271 271 268
223 225 226 228 229 230 229 227 229 231 229 232 231 227 229 229 228 229 235 245 243 250 248 233 229 226 227 223 227 231 233 232 236 245 250 253 254 259 265 268 272 273 274 274
223 226 222 226 229 231 231 229 231 235 234 233 233 237 224 231 228 233 236 245 256 258 252 240 225 228 228 235 237 239 243 244 242 244 248 253 255 255 257 265 269 273 277 279
230 229 226 224 225 227 227 225 230 232 235 236 231 239 228 234 231 234 240 244 253 250 234 231 233 235 235 238 245 253 255 253 253 253 256 254 258 263 264 264 266 268 271 274
221 223 223 221 217 221 223 219 225 225 222 229 232 235 234 229 231 235 237 242 243 238 233 223 226 232 235 238 235 232 239 248 255 261 265 266 264 266 269 270 269 270 271 273
224 225 223 220 220 226 228 225 226 225 226 229 226 233 232 224 228 233 237 240 239 239 239 244 246 242 228 227 238 258 263 256 257 265 261 262 266 270 270 272 272 273 273 273
223 218 219 220 221 224 225 226 227 232 235 235 237 233 240 237 239 233 235 238 242 240 238 235 237 234 225 245 255 263 269 276 278 271 269 265 264 269 272 273 275 274 274 274
218 218 222 222 216 217 223 226 224 226 227 229 234 237 241 235 228 237 237 242 240 239 238 243 244 243 245 250 261 271 275 274 269 262 259 264 271 278 279 282 281 280 276 275
219 225 226 220 217 221 221 224 226 228 233 237 240 240 232 246 243 238 242 240 241 239 240 244 249 255 260 263 266 267 267 265 266 261 262 265 269 273 276 279 282 281 279 276
218 216 219 221 223 224 226 232 230 228 231 231 237 243 245 246 250 242 238 240 244 248 249 252 255 259 263 266 266 264 265 264 263 265 268 271 273 275 274 273 275 273 273 274
217 219 220 221 224 223 222 227 230 231 231 234 240 247 243 245 245 231 246 244 247 249 252 256 259 262 264 265 266 267 266 265 264 265 268 270 272 274 277 280 282 283 281 281
218 220 227 226 230 229 227 230 235 234 232 235 239 244 249 255 254 253 255 253 249 247 249 253 256 259 261 261 263 265 264 264 265 268 269 270 274 278 279 280 280 281 283 285
218 218 222 226 230 235 234 229 230 234 235 233 237 241 245 251 256 257 253 252 250 251 251 250 251 255 258 260 262 261 262 264 266 269 274 277 278 279 280 281 281 282 283 283
216 225 229 230 229 232 234 231 230 235 238 238 238 239 242 246 248 252 255 256 255 253 252 252 252 254 257 258 259 260 262 264 266 268 270 272 274 278 282 284 285 286 286 286
223 226 228 234 232 231 233 228 229 230 233 235 237 231 235 241 245 247 252 255 258 258 259 259 257 257 255 256 258 260 262 266 268 272 276 281 286 287 287 287 285 285 284 283
221 220 226 228 228 233 235 235 237 236 234 235 235 235 238 240 246 249 251 253 254 257 258 258 259 261 264 263 261 265 268 272 277 282 283 286 285 284 282 281 280 280 280 282
221 225 224 226 233 235 239 240 237 238 233 233 233 234 236 237 236 242 249 253 255 255 257 261 262 262 262 262 266 268 273 279 282 283 282 280 279 279 278 278 280 282 284 286
225 221 223 228 234 238 238 239 236 243 242 239 239 240 242 241 242 242 248 248 250 255 257 257 258 261 263 266 269 274 279 280 280 277 274 274 274 274 276 278 279 282 284 286
220 221 230 237 243 242 242 236 245 248 238 240 240 239 239 242 247 243 245 248 249 251 256 260 262 266 270 273 277 278 278 276 274 273 272 269 269 270 271 275 279 284 289 292
224 228 233 236 241 237 242 243 245 255 251 251 240 238 243 244 236 238 242 249 252 255 259 264 269 273 275 277 279 280 279 275 272 268 266 267 264 265 271 277 280 284 290 293
224 228 234 237 241 241 244 248 241 238 244 236 231 226 237 238 237 238 244 248 252 260 267 270 269 270 271 272 272 271 271 270 266 263 263 264 265 269 273 278 280 280 283 288
221 226 230 229 224 233 239 230 236 234 238 232 231 238 237 232 236 243 252 257 257 257 261 262 264 266 265 267 268 268 266 265 264 265 266 267 268 269 271 270 276 280 285 288
225 223 224 227 230 232 234 223 228 244 236 242 234 234 236 238 242 245 248 251 256 260 262 265 266 265 266 267 266 264 262 263 266 265 265 265 267 267 266 270 275 282 286 288
229 230 229 222 225 228 220 217 227 234 236 237 228 226 233 236 241 247 251 254 256 261 270 271 267 266 266 266 266 264 262 264 263 262 265 268 269 270 271 274 279 282 282 284
Height
5728 5735 5744 5765 5775 5781 5786 5790 5801 5806 5806 5807 5812 5815 5818 5819 5826 5833 5835 5837 5842 5848 5849 5849 5852 5854 5857 5860 5861 5861 5864 5866 5867 5867 5868 5868 5870 5872 5872 5872 5872 5873 5873 5874
5714 5726 5748 5757 5764 5773 5778 5786 5794 5798 5799 5801 5804 5809 5810 5814 5821 5825 5828 5833 5836 5839 5841 5845 5848 5850 5852 5854 5857 5858 5859 5861 5864 5864 5863 5864 5866 5868 5869 5870 5870 5868 5868 5869
5714 5737 5737 5746 5756 5763 5770 5779 5787 5791 5793 5794 5800 5802 5804 5811 5814 5818 5824 5827 5830 5831 5832 5836 5842 5845 5846 5849 5850 5851 5853 5854 5856 5859 5860 5862 5862 5863 5865 5864 5864 5864 5864 5862
5707 5713 5724 5736 5748 5756 5762 5773 5778 5781 5783 5787 5793 5796 5799 5804 5810 5813 5819 5822 5823 5825 5824 5827 5834 5837 5841 5842 5843 5844 5846 5848 5849 5852 5854 5855 5857 5857 5858 5858 5859 5859 5858 5856
5701 5703 5719 5727 5745 5749 5757 5767 5770 5774 5777 5779 5786 5786 5796 5797 5804 5810 5813 5815 5818 5821 5820 5822 5827 5832 5835 5835 5838 5839 5840 5841 5842 5845 5847 5848 5850 5851 5850 5851 5851 5851 5850 5850
5685 5695 5704 5722 5732 5740 5749 5757 5761 5764 5767 5767 5777 5780 5790 5793 5802 5802 5805 5809 5812 5816 5819 5820 5823 5825 5828 5830 5832 5834 5836 5836 5837 5838 5840 5841 5843 5844 5843 5843 5843 5842 5841 5840
5671 5680 5698 5706 5715 5725 5732 5741 5747 5752 5755 5761 5768 5772 5781 5789 5793 5798 5800 5802 5807 5810 5815 5818 5819 5821 5822 5825 5827 5828 5830 5831 5831 5831 5833 5834 5835 5835 5835 5835 5834 5832 5831 5830
5661 5667 5677 5692 5703 5719 5729 5734 5736 5741 5749 5755 5757 5760 5771 5783 5786 5791 5795 5797 5800 5805 5808 5811 5814 5817 5819 5821 5822 5824 5825 5827 5827 5828 5827 5828 5828 5828 5827 5827 5825 5823 5822 5820
5651 5662 5675 5686 5702 5711 5714 5717 5735 5740 5746 5749 5752 5761 5764 5777 5780 5784 5788 5791 5794 5798 5801 5805 5808 5812 5813 5814 5816 5818 5819 5820 5820 5820 5820 5821 5821 5821 5820 5818 5817 5815 5814 5812
5650 5660 5668 5678 5686 5690 5700 5713 5719 5724 5732 5737 5740 5748 5756 5765 5775 5777 5781 5784 5787 5789 5794 5797 5800 5803 5807 5810 5810 5811 5811 5812 5812 5813 5813 5813 5812 5812 5811 5809 5809 5807 5804 5801
5641 5652 5657 5665 5664 5679 5692 5696 5707 5720 5724 5729 5736 5741 5752 5756 5767 5770 5773 5777 5780 5784 5787 5790 5792 5795 5798 5800 5802 5802 5802 5802 5803 5804 5804 5803 5803 5802 5801 5799 5798 5796 5793 5791
5630 5639 5646 5657 5664 5672 5679 5691 5698 5702 5714 5724 5728 5731 5738 5750 5756 5762 5766 5771 5774 5777 5780 5782 5784 5787 5789 5790 5791 5792 5792 5793 5793 5792 5793 5793 5792 5790 5789 5788 5787 5785 5783 5780
5621 5625 5634 5643 5651 5656 5664 5680 5691 5700 5706 5711 5720 5728 5731 5741 5747 5752 5757 5762 5765 5768 5771 5774 5776 5778 5779 5781 5781 5782 5782 5782 5782 5781 5781 5780 5780 5779 5778 5777 5775 5774 5771 5769
5610 5618 5626 5634 5652 5660 5663 5673 5682 5689 5694 5706 5711 5720 5723 5728 5735 5741 5746 5751 5754 5758 5761 5763 5765 5767 5767 5768 5769 5770 5770 5769 5769 5769 5769 5768 5768 5767 5765 5763 5761 5758 5756 5755
5600 5611 5623 5632 5638 5647 5655 5659 5668 5672 5689 5687 5711 5708 5714 5720 5724 5728 5729 5735 5742 5747 5750 5751 5753 5754 5755 5756 5757 5757 5757 5758 5758 5757 5757 5757 5755 5753 5752 5750 5748 5746 5743 5740
5595 5607 5615 5621 5627 5634 5640 5648 5656 5665 5674 5684 5693 5698 5706 5708 5710 5710 5716 5721 5725 5731 5736 5740 5742 5742 5743 5745 5745 5745 5746 5746 5746 5746 5745 5744 5742 5741 5739 5737 5735 5732 5729 5726
5594 5601 5606 5610 5616 5620 5620 5633 5645 5659 5667 5675 5672 5693 5696 5694 5696 5701 5702 5707 5714 5718 5721 5722 5725 5729 5731 5732 5734 5734 5735 5735 5735 5733 5732 5731 5730 5728 5726 5724 5722 5719 5716 5713
5583 5588 5594 5597 5600 5601 5623 5630 5641 5645 5653 5660 5668 5676 5680 5684 5687 5687 5690 5696 5701 5705 5706 5709 5713 5716 5719 5721 5721 5722 5722 5722 5722 5721 5721 5719 5717 5715 5713 5711 5708 5706 5703 5699
5569 5577 5581 5585 5594 5604 5609 5622 5632 5633 5644 5646 5653 5661 5666 5669 5670 5673 5681 5687 5691 5692 5694 5698 5701 5703 5705 5706 5707 5708 5709 5709 5709 5709 5707 5706 5704 5702 5699 5697 5695 5693 5690 5688
5558 5565 5572 5579 5586 5594 5611 5615 5621 5622 5621 5639 5645 5649 5654 5657 5657 5670 5672 5675 5679 5682 5684 5686 5688 5690 5692 5694 5695 5696 5696 5696 5695 5694 5692 5690 5689 5688 5686 5684 5682 5680 5678 5674
5545 5554 5563 5572 5580 5591 5598 5603 5606 5604 5629 5627 5630 5638 5640 5645 5658 5660 5660 5665 5668 5669 5672 5674 5676 5678 5680 5681 5682 5682 5682 5682 5681 5680 5678 5677 5676 5674 5673 5671 5669 5667 5664 5661
5539 5549 5555 5563 5571 5581 5588 5590 5598 5612 5611 5613 5621 5625 5631 5640 5640 5646 5648 5653 5658 5661 5662 5664 5664 5665 5667 5667 5668 5668 5669 5667 5666 5665 5665 5664 5663 5662 5660 5659 5657 5654 5652 5648
5530 5542 5551 5560 5571 5575 5582 5586 5588 5592 5597 5601 5607 5614 5620 5624 5629 5634 5639 5643 5646 5648 5650 5652 5654 5654 5655 5656 5655 5655 5655 5654 5654 5654 5652 5651 5651 5650 5648 5647 5645 5642 5639 5635
5524 5534 5541 5551 5560 5567 5569 5574 5577 5582 5586 5589 5595 5601 5609 5613 5617 5621 5625 5629 5632 5636 5639 5641 5641 5641 5641 5641 5641 5640 5640 5640 5640 5641 5640 5639 5638 5636 5634 5632 5630 5628 5625 5623
5519 5527 5536 5544 5551 5556 5559 5563 5568 5572 5575 5579 5584 5591 5596 5601 5605 5610 5615 5618 5621 5623 5624 5625 5626 5627 5627 5626 5625 5625 5626 5627 5627 5627 5627 5625 5624 5621 5618 5616 5615 5612 5609 5607
5506 5516 5526 5533 5540 5545 5549 5553 5558 5564 5567 5571 5576 5581 5585 5589 5594 5598 5601 5603 5606 5608 5609 5611 5612 5612 5612 5612 5613 5613 5612 5612 5612 5612 5611 5610 5609 5606 5602 5599 5598 5597 5593 5591